Theta_e
340 339 339 336 330 331 334 333 333 334 334 333 333 332 332 332 331 331 330 329 330 330 330 331 331 330 327 327 329 332 330 330 329 326 326 325 324 326 327 327 327 330 332 333 334 333 332 332 333 334 335 335 336 337 337 338 339 339 339 339 340 340 340 340 341 341 341 341 340 340 340 340 341 342 342 342 342 342 342 341 340 341 343 344 344
340 338 336 333 333 334 334 333 334 335 334 333 332 332 332 333 333 333 333 333 333 333 332 333 334 334 332 332 331 332 333 333 330 328 330 329 328 330 331 330 330 331 331 332 332 332 331 331 333 333 334 334 335 335 335 336 337 338 338 338 339 339 339 339 340 339 339 340 339 338 338 339 340 340 341 341 342 342 342 342 341 341 341 342 343
338 335 333 333 335 334 334 334 335 334 333 333 333 333 333 334 334 333 334 333 333 333 333 333 335 335 334 333 332 332 333 333 331 331 331 330 331 331 331 331 332 333 332 333 332 331 330 331 333 333 334 334 335 335 335 335 336 337 338 338 338 338 339 339 338 338 338 338 337 337 338 339 339 339 339 340 341 341 341 342 341 341 340 340 341
336 331 332 335 335 334 334 335 333 332 332 334 334 334 333 334 334 333 333 333 332 332 333 333 334 335 335 334 332 333 333 333 332 331 331 330 330 328 327 328 331 332 332 333 332 330 328 328 331 332 333 334 334 334 334 335 335 336 337 337 337 337 337 337 338 337 337 337 337 337 338 338 338 338 337 337 337 338 339 339 339 340 340 340 340
333 330 334 334 334 335 334 332 330 331 334 334 333 333 333 333 333 333 333 333 332 332 333 333 333 334 335 335 333 333 334 333 332 331 330 328 329 329 328 329 328 329 330 332 332 330 327 327 329 331 333 334 333 334 334 334 334 335 336 337 337 337 336 336 336 336 336 337 338 338 338 337 336 335 335 335 335 335 335 336 337 338 340 340 340
330 332 335 333 334 334 330 328 330 333 334 333 333 333 332 332 332 332 332 332 332 333 333 333 333 333 334 334 333 333 334 333 332 330 329 327 329 331 330 329 326 328 331 332 332 332 330 330 331 333 334 333 333 333 332 332 333 334 335 336 336 337 336 336 336 336 337 337 338 338 337 335 334 333 334 334 335 335 334 335 338 339 340 341 341
330 333 334 332 332 330 326 327 332 334 333 333 333 333 332 331 331 331 332 332 332 333 334 334 333 334 334 333 332 333 333 332 330 328 328 328 329 329 330 328 326 327 330 331 332 332 332 332 332 333 334 333 332 333 332 331 333 334 334 334 335 336 336 336 336 336 337 337 337 336 335 334 333 334 335 335 336 337 336 337 339 339 340 341 342
329 333 332 330 329 326 324 326 332 334 333 333 332 332 331 330 330 331 332 332 333 334 334 334 335 334 333 332 332 333 332 330 329 328 329 329 328 329 331 330 328 328 329 331 332 332 332 332 332 332 333 333 332 332 331 331 333 334 333 334 335 335 335 336 336 336 336 335 335 334 334 334 334 334 335 336 338 339 337 338 339 339 339 340 342
328 332 330 328 326 324 322 323 330 333 333 333 332 330 329 330 330 331 333 332 333 333 334 334 334 333 332 332 332 332 330 329 329 329 330 330 331 332 333 333 333 333 333 333 333 333 333 333 333 332 332 333 333 332 331 331 333 334 334 334 334 335 335 336 337 336 335 335 334 334 333 334 334 334 336 337 339 340 340 339 339 340 340 341 342
328 329 327 325 324 322 321 322 326 331 333 331 330 330 329 330 330 331 332 331 331 331 331 331 332 331 331 331 330 329 328 329 330 331 331 332 333 334 334 334 335 335 335 334 334 334 334 334 334 333 332 333 334 332 332 332 333 334 334 335 335 335 335 335 337 336 335 334 334 334 334 335 335 335 337 339 340 341 341 341 340 341 341 341 342
326 325 324 323 323 321 321 321 323 330 332 331 330 330 329 330 330 330 328 328 329 329 329 329 329 330 330 330 328 328 328 330 331 332 332 333 334 333 334 335 336 336 334 333 334 334 334 334 333 333 333 333 332 332 332 332 333 334 334 335 334 335 335 335 336 335 334 334 334 335 335 337 338 336 338 339 340 340 341 341 341 341 341 341 341
324 323 323 323 322 321 321 322 322 327 330 330 330 330 329 330 330 330 329 328 327 328 328 328 328 328 329 329 328 328 329 330 331 333 333 334 334 333 335 335 335 335 334 333 333 333 334 334 333 333 333 332 332 332 332 332 333 334 334 334 335 335 335 335 334 334 334 334 334 335 335 337 337 336 338 339 338 339 340 341 340 341 340 340 341
324 323 323 322 321 321 322 322 322 324 326 327 327 327 327 327 328 328 329 329 328 328 328 328 327 327 328 328 327 327 328 329 331 332 332 333 332 333 335 334 334 335 334 333 333 333 334 333 333 333 333 332 332 332 332 332 333 334 335 335 335 336 336 335 334 334 334 334 334 335 335 335 334 335 337 338 337 339 340 341 340 340 339 340 340
323 323 322 321 320 321 322 323 323 323 324 325 325 325 325 325 326 326 327 328 329 329 328 328 328 329 328 328 328 328 329 329 330 330 330 331 331 332 334 334 335 335 334 334 333 333 333 333 333 333 333 332 333 333 332 332 332 334 335 335 335 336 336 335 335 335 335 335 336 336 336 336 335 335 336 336 337 338 340 340 340 339 339 339 340
322 321 321 321 320 320 323 323 323 323 323 324 324 324 325 325 325 326 326 327 327 328 328 327 327 328 328 328 329 330 330 330 330 330 330 331 332 332 333 335 335 335 335 334 334 333 333 334 334 333 333 332 333 333 333 333 332 334 335 334 335 336 335 334 335 335 335 335 336 336 336 337 337 337 336 337 338 338 339 340 339 339 339 339 339
323 321 321 320 320 321 323 324 325 325 325 324 323 324 324 325 325 325 325 326 326 326 325 324 324 325 327 328 329 330 330 330 330 331 330 331 331 332 333 334 335 335 335 334 334 334 334 334 333 333 333 332 332 333 334 333 333 335 335 334 335 336 335 334 335 335 335 334 334 336 336 337 337 337 337 337 338 338 339 339 339 339 339 338 338
324 322 321 321 323 325 325 326 326 327 327 326 324 324 324 325 326 325 325 326 325 323 322 322 322 323 326 328 329 329 330 330 330 330 331 331 331 332 333 333 335 335 335 335 335 335 334 334 334 333 333 332 333 333 334 334 334 335 335 335 335 335 335 335 335 335 334 333 333 335 336 336 336 337 337 338 339 338 339 338 338 339 338 338 338
326 324 322 323 327 328 328 328 327 327 327 327 327 326 325 325 328 328 325 325 324 322 322 321 321 322 324 327 329 329 329 330 330 330 330 330 331 333 333 333 335 335 334 334 335 335 334 334 334 334 332 332 333 334 334 334 334 334 335 335 334 334 335 334 334 333 332 332 334 335 335 336 336 337 337 338 338 338 338 337 338 338 338 337 337
329 329 327 327 328 328 328 328 328 328 328 328 328 327 326 325 328 329 324 324 323 321 321 320 321 321 323 327 328 329 329 329 329 329 330 330 331 333 332 333 335 334 333 333 334 335 334 333 334 334 333 333 334 334 333 334 334 334 334 334 334 334 334 334 334 333 333 333 334 334 335 336 336 337 338 337 338 338 337 337 338 338 337 337 337
331 331 330 329 328 327 327 328 328 328 328 329 328 328 327 326 326 325 323 323 321 321 321 320 321 321 323 327 328 329 329 329 329 329 329 330 330 331 332 332 333 333 332 333 334 335 334 333 334 334 333 334 333 333 333 333 333 334 333 333 333 333 333 334 333 332 333 334 334 334 335 336 336 337 337 337 338 338 337 338 338 337 337 337 337
333 332 331 330 329 327 327 328 329 329 329 329 328 328 327 325 324 324 324 322 321 321 321 320 321 321 323 327 328 328 329 329 329 329 329 329 330 330 331 331 331 331 333 333 333 334 334 334 334 334 333 333 332 332 333 332 333 333 332 332 332 333 333 333 332 332 333 333 333 334 335 336 336 337 337 337 337 337 337 337 338 337 337 336 336
333 333 332 330 329 328 329 329 330 330 329 329 327 326 325 325 324 325 325 322 321 321 320 321 321 320 323 326 328 328 329 329 329 328 328 329 329 330 330 331 330 331 332 332 332 333 334 334 334 333 333 332 331 331 332 332 331 332 332 331 331 332 333 333 332 332 332 332 333 334 335 336 336 337 337 337 337 337 337 337 338 337 336 336 336
333 333 331 330 329 329 330 330 330 330 328 327 325 324 324 324 324 324 323 321 321 320 320 321 321 321 322 326 328 328 329 328 328 327 327 328 328 329 329 330 331 331 331 331 331 332 333 333 333 333 333 332 331 332 332 331 331 331 331 331 331 332 333 333 332 332 332 333 333 334 335 335 336 336 336 337 337 337 337 337 337 337 336 336 336
333 333 331 330 329 329 330 330 330 329 327 326 324 323 323 324 324 322 320 320 320 320 320 322 322 322 323 326 327 328 328 327 327 327 326 327 328 328 329 330 331 331 331 331 332 332 332 332 332 332 332 331 331 331 331 331 330 330 330 331 331 332 332 333 332 332 332 333 333 334 334 334 335 336 336 337 337 336 336 336 336 336 336 336 336
332 331 331 330 329 330 330 330 329 327 327 325 323 323 324 324 323 321 320 320 320 320 321 321 322 323 324 326 327 327 326 326 326 326 326 327 328 329 329 330 331 331 330 331 332 332 331 332 332 331 331 331 331 331 332 331 331 331 331 331 331 332 332 333 333 332 332 333 333 334 334 334 335 335 336 336 336 336 336 336 336 335 336 335 336
331 330 330 330 330 331 330 329 328 328 327 326 324 324 324 324 322 320 320 320 320 320 321 321 322 323 324 325 326 326 325 325 326 326 327 328 328 329 330 331 331 331 331 331 332 332 331 331 331 330 331 331 331 332 332 332 332 332 332 332 332 332 333 332 332 332 332 333 333 334 334 334 335 335 336 335 336 335 334 335 335 335 335 335 335
330 330 330 330 330 330 330 329 328 328 327 326 325 324 325 324 322 321 321 320 320 320 321 321 322 323 324 324 324 324 324 325 325 326 328 328 329 330 331 332 331 331 331 332 332 331 330 330 331 331 331 331 332 332 332 332 332 332 332 332 332 333 333 332 332 332 332 333 333 333 333 334 334 335 335 335 335 335 334 334 334 334 335 335 335
330 330 330 330 330 330 330 328 328 328 327 325 324 325 325 324 323 322 321 321 320 321 321 321 322 322 322 323 322 323 324 325 326 328 328 328 329 330 331 332 332 332 332 332 332 332 332 332 332 332 332 332 332 332 332 332 332 332 332 332 333 333 333 333 332 332 332 332 333 333 333 333 333 334 334 334 335 335 335 334 333 334 335 334 333
330 330 330 330 330 330 329 328 328 328 327 326 325 326 326 325 325 323 322 321 321 321 321 321 322 322 322 322 323 323 324 325 327 328 328 328 330 330 331 332 333 332 332 332 332 332 332 332 333 333 333 333 333 332 332 333 333 333 332 332 333 333 333 333 332 331 331 332 333 333 333 333 333 333 334 334 334 334 335 334 334 333 333 333 332
330 330 330 330 331 329 329 328 328 329 328 327 327 327 327 326 325 323 322 322 322 322 322 322 322 322 322 323 324 324 324 326 328 328 327 329 330 330 331 332 333 333 332 332 332 332 332 332 332 333 333 333 333 333 333 333 333 333 333 332 332 332 332 331 331 331 331 332 333 333 334 333 333 334 335 335 334 334 334 334 334 333 333 334 333
330 330 330 330 330 329 329 329 329 329 329 329 328 328 328 327 325 323 323 322 322 323 322 322 322 322 323 324 324 324 325 327 328 327 327 330 331 331 331 332 333 333 333 332 333 333 332 332 332 333 333 333 333 333 333 333 332 333 333 332 332 332 330 328 330 331 331 331 333 333 334 334 334 334 334 335 335 334 334 334 335 335 334 334 334
330 330 330 330 330 329 329 330 330 330 330 330 330 329 327 325 325 324 323 323 323 323 322 322 322 323 324 325 325 325 326 327 327 326 327 330 331 332 332 332 333 333 333 333 333 333 333 332 332 332 333 333 333 333 333 332 332 332 333 332 332 331 328 326 330 332 332 332 333 333 333 334 334 334 334 335 335 334 333 333 335 336 335 333 335
330 330 330 330 330 330 330 331 331 331 331 331 330 329 327 326 325 324 323 323 323 323 323 321 322 324 325 325 326 327 327 327 326 325 327 330 331 332 333 333 333 333 333 333 333 333 332 332 332 332 332 332 333 333 333 333 333 333 333 333 332 332 330 329 331 333 332 332 333 333 333 333 333 334 335 334 334 334 333 333 334 335 334 333 334
329 330 330 331 330 330 331 332 332 331 331 331 330 330 328 325 325 325 324 324 324 324 323 322 322 324 324 325 325 326 326 327 326 325 327 329 330 332 333 333 333 333 333 333 333 332 332 332 332 332 332 332 333 333 333 333 333 333 333 333 333 333 332 332 333 332 333 333 333 333 332 332 332 334 334 334 334 334 334 334 334 334 334 333 333
329 330 330 331 331 332 332 332 332 332 331 331 330 330 327 323 323 325 324 324 324 323 323 323 323 324 324 324 324 324 324 325 325 324 325 328 329 331 333 333 333 333 333 333 333 332 331 331 331 331 332 332 333 333 332 332 333 333 333 334 334 333 333 333 333 333 332 332 333 333 333 333 332 333 334 334 334 334 334 334 334 334 334 334 334
329 330 331 331 332 333 333 333 333 332 331 331 331 331 329 325 324 325 325 325 324 323 323 324 324 324 324 324 324 323 323 322 322 322 323 326 328 329 331 332 332 333 333 333 333 332 331 331 330 331 331 331 332 332 332 332 332 332 332 333 333 333 333 334 333 333 332 332 333 333 334 334 333 334 334 334 334 334 334 334 333 334 334 333 333
329 330 331 332 333 334 334 334 333 332 332 332 332 331 329 327 325 325 326 325 324 323 324 324 325 324 324 324 323 323 323 322 322 320 322 325 328 329 329 328 328 330 332 333 333 333 332 331 331 331 330 330 330 331 331 332 331 330 330 330 331 332 332 333 333 333 332 332 332 332 333 333 334 334 335 334 334 334 334 334 333 333 333 333 333
329 330 331 332 333 334 334 334 334 333 332 332 332 330 327 326 326 326 326 326 325 324 324 324 324 324 323 322 322 322 322 323 323 323 323 325 327 328 327 324 323 326 329 331 332 333 332 332 331 331 331 330 330 330 330 330 330 329 329 328 329 329 330 331 333 333 333 333 333 332 332 332 333 334 334 334 334 334 334 333 333 334 334 333 333
330 330 331 332 333 334 334 334 334 333 332 332 332 330 327 326 326 326 326 326 325 325 325 323 323 322 322 322 322 323 323 324 324 324 325 326 327 328 326 324 323 324 326 328 332 333 333 333 332 332 331 331 330 329 329 329 329 328 326 326 326 327 328 329 331 332 333 334 333 333 333 332 331 332 332 333 334 334 335 334 334 334 333 334 334
331 331 332 333 333 334 334 334 334 333 332 332 332 330 328 327 326 327 328 327 326 326 325 324 324 324 325 325 325 325 325 325 325 325 325 326 327 328 327 325 324 324 324 326 329 333 334 333 333 332 332 331 330 329 329 329 329 327 325 324 324 325 325 326 329 331 331 332 332 332 333 333 332 331 331 331 332 333 333 334 334 334 334 334 334
331 331 332 333 334 334 334 335 335 334 333 332 332 331 330 329 328 329 329 328 327 326 326 326 326 326 326 326 326 326 326 326 325 325 325 326 326 327 327 326 326 326 325 325 326 329 333 333 333 332 331 331 330 329 329 329 329 329 328 326 325 324 324 325 326 328 329 330 330 331 332 333 333 332 331 330 330 331 331 332 333 333 333 333 333
332 332 332 333 333 333 334 335 335 334 333 333 332 331 331 331 330 329 329 329 328 327 326 326 326 327 327 327 327 327 327 326 327 326 326 326 327 328 328 327 327 326 326 326 325 325 328 331 332 331 331 330 330 330 329 328 329 328 327 328 328 326 325 325 325 325 326 327 328 330 331 331 332 333 332 330 330 330 330 330 330 330 331 331 332
331 332 332 333 333 333 335 335 334 334 333 332 332 331 332 331 331 330 329 330 330 328 327 327 326 327 327 327 327 327 328 327 328 327 326 327 327 328 327 327 327 326 326 326 326 325 325 327 329 331 331 330 330 330 329 329 329 326 327 330 331 331 328 325 325 325 324 325 326 328 329 330 331 331 331 330 329 329 328 328 328 327 327 328 328
332 332 332 333 334 334 334 334 334 334 333 333 332 332 332 332 331 330 330 330 330 329 327 327 327 327 327 328 328 328 329 329 329 328 327 327 327 328 328 327 327 326 326 326 327 326 326 326 327 329 329 328 328 328 329 329 328 326 328 328 326 330 332 326 324 326 325 324 325 326 328 329 329 329 329 329 329 328 327 326 325 323 322 322 323
332 332 332 332 333 333 334 334 334 333 333 333 332 332 332 332 331 330 330 330 330 329 327 327 327 327 328 328 328 329 329 330 330 329 328 328 328 329 329 329 328 328 328 328 328 328 327 326 326 326 326 326 325 325 326 326 325 324 326 328 327 331 332 326 324 326 325 325 325 324 326 328 329 328 328 329 328 328 328 326 325 322 319 317 318
332 332 332 332 333 333 333 333 334 333 332 332 332 332 332 332 331 330 331 331 331 330 328 327 328 328 329 329 329 328 329 330 330 331 331 331 331 331 331 331 330 330 329 329 329 329 329 327 326 326 325 325 325 326 326 325 325 324 324 327 328 329 329 326 327 329 326 325 325 324 325 325 326 327 327 328 327 328 328 328 327 325 321 319 319
332 332 332 332 333 332 332 333 333 332 332 332 332 332 332 332 332 331 331 331 331 330 329 329 329 329 329 330 330 329 330 331 331 332 332 332 332 332 332 332 332 331 331 330 330 330 329 329 328 327 326 326 325 326 326 326 326 326 325 325 325 325 326 326 329 331 329 327 326 325 325 324 324 325 325 325 325 325 326 327 328 327 326 324 324
332 332 332 333 333 332 332 333 333 332 333 332 332 332 331 332 332 332 332 331 331 330 330 330 331 331 330 331 331 331 332 332 332 333 333 334 334 334 333 333 333 333 332 332 331 331 330 330 330 329 328 327 326 326 327 326 326 326 326 325 325 325 325 325 326 328 329 329 327 325 325 324 324 324 324 324 323 324 324 324 325 327 328 327 326
332 332 332 333 333 332 333 333 333 333 333 333 332 332 332 332 333 333 332 332 331 330 331 330 331 331 331 331 332 332 333 333 334 334 334 335 335 335 335 334 334 333 333 333 333 332 331 331 331 331 330 329 328 328 327 327 327 327 327 326 326 326 326 326 326 325 327 329 328 327 326 325 325 324 324 325 325 324 324 323 323 325 328 328 327
333 333 333 333 333 333 334 333 333 333 334 333 333 332 332 332 332 333 333 333 332 331 331 331 331 331 331 332 333 332 333 334 335 335 335 336 336 336 336 335 334 334 334 334 333 333 332 332 331 331 331 330 330 329 329 328 328 328 328 327 327 327 327 327 327 326 326 326 327 326 325 325 325 323 322 324 326 326 325 324 323 324 327 329 329
333 333 333 333 333 333 334 333 333 333 333 333 334 333 333 332 333 333 333 333 333 332 332 331 331 331 331 332 333 333 334 335 335 336 336 337 337 337 336 335 334 334 333 333 333 333 332 331 332 332 331 331 331 330 330 329 329 329 328 328 328 327 328 328 327 326 326 326 326 326 324 324 324 322 320 322 325 326 326 326 325 326 328 329 330
Wind_Speed
8 9 9 7 7 9 8 8 7 7 6 5 5 5 5 5 4 4 4 3 3 3 3 3 2 2 1 1 1 0 1 2 2 2 3 3 3 2 2 2 1 2 3 3 4 4 5 4 3 3 4 4 4 5 6 7 7 8 9 9 8 7 8 8 9 8 7 8 8 9 9 10 10 10 10 10 11 11 10 11 11 11 11 11 11
10 10 9 8 8 9 8 7 7 6 5 4 4 4 4 4 3 3 2 2 1 1 1 1 1 1 2 2 2 1 2 3 3 2 3 3 3 2 3 2 2 2 3 3 4 5 5 5 4 3 3 4 3 4 5 5 6 7 8 9 8 8 9 9 10 9 7 8 8 9 10 10 10 11 11 11 11 11 11 12 11 11 12 12 12
11 10 9 9 8 8 7 6 5 5 4 4 3 3 3 2 2 2 1 1 0 0 1 1 1 1 2 3 3 3 3 2 3 3 3 3 3 2 2 2 2 3 3 4 4 5 5 5 5 4 3 3 4 5 5 5 6 7 8 8 9 10 10 10 10 9 8 8 9 9 10 10 10 11 12 12 11 12 12 12 11 11 11 12 11
11 11 10 9 7 6 5 5 5 4 4 3 3 3 3 3 3 2 2 1 1 1 2 2 1 2 3 3 4 4 4 4 4 4 3 3 3 3 3 2 2 3 4 4 4 5 5 5 5 5 4 4 4 5 5 5 5 6 7 8 9 11 11 10 10 9 9 9 9 10 10 10 11 11 11 12 13 13 13 12 11 10 11 11 11
11 11 10 9 7 6 5 5 4 4 4 3 3 3 3 3 3 3 2 2 2 2 2 2 2 2 2 3 4 4 5 5 4 3 4 4 3 4 4 3 3 3 4 4 5 5 5 6 6 5 5 5 5 4 4 5 5 6 6 7 7 9 10 11 11 9 9 9 9 10 10 10 10 11 11 12 13 13 14 13 12 11 11 11 11
10 11 10 9 7 6 5 5 4 4 4 4 4 3 4 4 3 3 2 2 2 3 3 3 3 3 3 3 4 5 5 4 4 4 4 5 5 4 5 5 4 4 4 5 5 5 5 6 6 6 6 5 5 5 5 5 4 4 5 6 6 6 8 9 10 9 9 9 8 9 9 9 10 10 11 12 12 13 14 13 12 11 10 11 12
11 11 10 8 7 6 6 6 5 4 4 4 4 4 4 4 3 2 2 3 3 3 3 4 4 4 4 4 4 5 4 4 5 5 6 6 5 5 5 5 5 4 4 5 5 5 5 6 6 6 6 6 6 6 5 5 3 3 5 5 5 6 7 8 8 8 7 7 7 7 8 9 9 9 10 11 12 12 13 12 11 11 11 12 12
11 10 9 8 7 7 7 7 5 4 4 4 4 4 4 4 3 3 3 3 3 3 4 4 5 5 5 5 5 5 5 5 5 6 6 6 6 6 6 6 5 5 5 5 5 5 6 6 6 6 6 6 6 6 6 5 3 4 5 5 5 6 7 7 6 6 5 5 6 7 7 8 8 8 8 9 10 11 12 12 11 11 12 13 12
10 9 8 7 8 8 7 6 4 4 4 5 5 5 5 5 4 4 4 4 4 4 4 5 5 5 5 5 5 5 5 5 6 6 6 7 7 7 6 6 5 6 6 5 5 5 6 6 6 6 7 6 6 6 6 5 5 5 5 5 5 5 6 5 4 4 5 5 5 6 6 6 7 7 7 8 8 10 11 11 12 13 13 12 11
9 8 7 7 9 8 7 6 5 4 5 5 5 5 6 6 5 5 5 5 5 5 5 6 5 5 5 5 5 6 6 6 6 6 6 7 7 7 6 6 6 6 7 6 6 6 7 6 5 6 7 6 5 5 5 5 5 6 5 4 4 4 5 4 4 4 4 4 4 4 4 4 5 6 8 7 7 9 9 11 13 13 11 10 9
8 7 7 8 9 8 7 6 6 5 4 4 5 5 6 5 6 6 7 6 6 6 6 6 6 6 6 6 6 7 7 7 7 7 7 7 8 8 7 8 7 7 7 7 6 7 7 6 5 5 5 5 5 4 4 4 5 4 4 4 3 4 4 3 3 4 3 3 3 3 4 4 4 5 8 7 6 7 9 12 12 11 10 10 10
7 7 7 8 9 8 7 7 7 7 5 5 5 5 5 5 6 7 8 8 8 8 7 7 7 7 7 7 7 7 7 8 7 7 8 8 9 9 9 9 8 8 8 7 7 6 7 7 5 5 5 4 4 4 3 3 3 4 3 3 3 2 2 2 2 2 1 2 2 3 4 5 6 6 8 7 7 8 8 10 11 12 12 11 10
7 7 8 9 9 8 7 8 8 8 8 8 7 7 6 6 6 7 8 9 10 10 10 10 9 9 9 8 8 8 9 9 9 9 9 10 10 10 10 10 10 10 10 10 8 7 6 7 5 5 5 4 4 4 3 2 3 5 3 2 2 1 1 1 1 1 0 1 1 1 2 4 5 7 9 7 7 8 7 8 10 12 11 11 11
8 7 9 9 9 8 7 8 9 9 9 9 9 9 8 8 8 8 8 8 9 10 11 11 11 11 10 9 10 10 10 11 11 10 10 10 10 10 9 10 11 10 10 11 9 7 7 7 6 6 5 4 4 4 4 3 2 4 4 1 1 2 1 0 1 2 2 3 2 2 0 2 3 6 8 7 7 7 7 8 9 10 10 11 11
7 8 9 9 9 8 7 7 8 8 8 8 8 8 9 9 9 8 8 8 9 9 10 11 11 11 10 9 9 10 11 11 11 11 10 10 10 10 10 10 10 10 10 11 10 9 8 7 7 6 6 5 4 4 4 4 2 3 4 0 2 2 1 2 3 4 4 4 3 3 1 1 2 4 6 7 8 7 8 8 9 10 11 12 11
7 8 9 9 9 8 7 6 5 5 6 6 7 7 7 8 8 8 8 8 8 9 9 10 10 10 9 8 8 9 10 10 10 10 10 10 10 10 10 10 10 11 11 11 11 10 9 7 7 6 6 6 5 4 3 2 2 2 2 2 3 4 4 4 5 7 6 3 3 3 3 2 1 3 5 7 8 8 8 9 10 10 11 12 12
7 8 8 9 8 6 5 4 4 4 4 5 5 6 6 7 8 7 7 7 8 9 9 9 9 9 8 6 6 8 9 9 9 10 10 10 10 9 10 11 11 11 11 12 12 11 10 8 8 6 6 7 6 3 1 3 4 3 4 5 6 6 6 5 5 7 5 2 3 5 4 3 2 3 5 6 7 8 9 9 10 10 11 12 12
8 7 8 8 6 5 3 2 2 3 3 4 5 4 5 6 7 7 6 6 7 8 9 8 7 7 7 5 6 7 8 9 10 10 10 10 9 9 10 11 12 12 10 11 12 11 11 8 8 8 8 8 5 2 4 6 6 5 6 6 7 7 7 6 7 7 3 2 4 5 5 4 4 5 6 7 8 9 9 11 11 11 11 13 13
8 7 7 6 5 3 2 1 2 3 4 5 5 5 3 4 5 6 7 6 7 8 7 7 6 5 6 5 5 7 8 9 10 10 10 10 10 10 11 12 12 11 12 13 12 10 11 10 9 9 10 8 5 6 8 9 8 7 7 7 8 7 7 8 8 5 3 5 6 6 6 4 5 6 7 8 10 10 11 12 12 12 14 15 15
8 7 5 4 3 3 2 2 3 4 5 6 7 6 1 2 3 4 7 7 7 7 6 6 4 3 5 5 6 7 8 9 10 10 11 11 12 12 12 12 12 11 13 14 12 10 11 12 11 10 9 8 8 10 10 9 8 8 8 8 8 8 8 9 7 4 5 6 6 6 6 5 6 7 8 10 11 12 13 13 14 15 17 17 17
9 7 5 3 2 2 2 2 4 6 7 7 7 5 1 3 2 3 5 6 7 6 5 5 3 2 4 6 7 7 8 9 9 10 11 12 13 13 13 12 13 12 12 12 11 10 11 12 11 10 9 9 11 12 10 8 8 9 9 9 9 9 9 9 6 5 7 6 5 6 6 6 7 8 9 11 12 13 14 15 16 17 17 17 18
10 7 5 2 2 2 2 3 6 7 7 6 4 2 3 4 2 2 4 6 6 5 5 5 4 3 4 6 7 8 8 8 9 11 12 12 13 13 12 12 14 14 11 10 11 11 12 12 11 12 13 12 12 10 8 8 9 10 11 10 9 9 10 8 6 6 8 7 5 6 7 7 7 9 11 12 14 15 15 16 17 18 18 19 20
10 7 4 2 2 2 3 5 7 7 5 5 4 5 4 3 3 4 4 6 6 6 6 6 5 4 5 5 6 7 7 8 9 10 11 12 12 12 11 12 14 14 11 12 13 13 14 14 14 15 14 13 11 8 8 9 11 12 11 10 9 10 10 9 7 8 9 7 6 6 7 9 9 10 12 13 15 17 17 17 19 20 19 20 20
9 7 4 2 2 2 3 6 7 6 5 6 7 6 6 6 7 7 7 7 7 6 7 8 7 6 6 5 4 5 6 7 9 10 11 12 13 12 11 12 14 13 12 13 15 15 15 16 16 15 14 12 11 10 10 12 13 13 12 11 10 10 10 10 9 9 9 8 6 6 7 10 10 11 12 14 16 18 19 19 20 20 20 20 19
7 6 4 3 2 1 3 5 5 5 6 7 8 8 7 8 9 9 9 10 8 7 9 9 8 7 6 5 4 5 6 8 9 10 12 13 14 13 13 13 14 13 12 14 15 15 17 17 16 15 14 13 12 12 12 13 13 13 12 11 10 10 10 11 12 11 10 9 7 6 7 9 10 11 12 14 16 17 19 19 19 20 20 19 19
7 5 3 3 1 1 3 4 4 5 7 8 8 8 9 8 9 10 10 10 8 8 11 11 10 8 6 4 4 5 6 8 9 10 12 13 14 14 14 14 14 14 13 14 16 17 17 17 16 16 14 13 13 13 13 13 12 12 11 11 11 12 12 12 12 12 11 11 8 7 9 9 10 12 13 14 15 16 18 19 19 18 18 19 19
6 4 3 2 2 2 3 3 4 5 7 8 8 9 9 8 9 9 9 10 10 10 11 11 11 9 6 5 5 6 7 8 10 11 13 13 14 14 15 14 15 16 15 16 17 18 18 17 17 16 15 14 14 14 13 13 13 13 13 14 14 14 14 13 13 13 13 12 10 8 10 12 11 13 14 14 15 16 17 19 19 18 17 18 19
7 5 3 3 3 3 3 3 4 5 7 7 8 8 8 9 9 8 8 10 10 11 12 11 12 10 7 5 6 7 8 9 10 12 13 13 14 14 15 14 16 17 16 16 18 18 18 17 17 16 15 15 16 16 15 15 15 14 15 16 16 16 15 15 14 15 14 13 12 11 13 14 13 14 14 14 16 16 17 18 19 18 17 18 19
8 6 4 3 2 4 5 4 4 5 6 7 7 8 8 9 8 7 7 7 9 10 11 11 11 9 7 6 6 7 9 10 11 12 13 13 13 13 14 15 16 16 16 16 17 17 17 17 17 16 16 16 17 16 16 16 16 15 16 18 18 18 18 18 17 16 16 15 15 14 15 15 14 15 14 14 16 16 16 18 20 19 18 18 19
8 6 4 3 2 4 5 4 4 6 7 8 8 8 7 7 7 8 8 7 7 9 10 11 11 9 8 8 8 8 9 10 11 12 12 12 12 12 13 14 15 16 15 16 15 16 16 16 16 16 15 16 16 16 16 16 16 16 18 19 19 19 19 19 18 17 16 16 18 17 16 16 15 16 16 15 17 17 16 18 20 19 18 18 19
8 7 5 3 3 5 5 5 6 7 7 8 8 8 8 7 5 8 10 8 8 9 10 11 11 10 10 10 10 10 10 11 12 11 11 12 12 13 13 13 14 15 15 15 14 14 15 16 16 16 15 15 16 16 16 17 17 17 18 19 20 20 20 20 20 18 17 18 21 20 19 18 17 18 17 16 16 16 17 18 19 17 17 19 19
9 8 7 5 4 4 5 6 7 6 6 7 7 8 9 7 5 7 9 9 8 8 8 10 11 11 11 11 11 11 11 11 12 11 11 11 12 14 14 14 14 14 15 15 15 15 15 16 16 16 15 15 16 16 17 17 18 18 18 19 19 20 20 21 22 21 20 22 23 22 20 20 19 18 17 17 17 16 17 18 19 17 17 19 19
9 9 8 6 4 4 4 6 6 5 5 6 7 7 6 6 5 5 7 7 7 7 7 9 10 10 11 12 12 12 12 12 12 11 10 11 12 13 14 14 13 13 14 14 15 15 16 17 16 16 15 15 16 16 17 19 19 18 19 19 19 19 18 19 20 22 23 23 23 22 21 21 20 19 18 18 18 17 16 17 18 18 17 18 18
10 10 10 7 5 4 4 5 5 4 4 6 7 7 6 7 5 4 6 6 6 7 7 9 10 10 10 11 12 12 12 11 11 11 10 10 12 13 13 14 13 12 13 13 14 14 15 16 15 15 15 16 17 17 18 19 19 19 19 19 19 19 18 18 21 23 23 23 22 21 20 20 20 19 18 18 18 17 16 16 17 17 17 17 17
11 11 10 8 6 5 5 5 4 3 4 5 6 6 7 8 6 4 6 6 7 8 8 9 10 11 10 10 11 11 11 10 9 9 9 9 11 12 13 13 12 11 12 12 12 13 13 15 15 14 15 15 16 17 18 19 19 19 19 19 19 20 21 21 22 24 24 23 22 20 19 19 18 17 17 17 18 17 15 16 16 16 16 16 16
12 12 11 9 7 6 5 5 3 3 4 5 5 5 5 7 6 6 7 7 8 9 9 10 11 11 10 9 10 10 10 9 8 7 7 8 10 12 12 11 11 10 11 10 11 12 13 15 15 15 15 16 17 17 17 17 18 19 18 19 19 20 22 22 22 23 23 23 21 19 18 18 17 16 16 16 17 16 15 16 16 15 15 15 15
12 12 12 10 8 7 5 4 3 3 4 4 4 4 6 7 6 6 7 8 10 9 9 10 11 11 9 9 8 8 9 9 8 7 6 7 9 11 11 10 9 9 10 10 11 12 13 14 15 14 15 17 18 18 17 16 17 18 19 20 20 20 21 20 21 23 23 23 22 20 18 17 16 15 15 16 16 16 15 15 16 15 15 14 14
12 12 11 9 8 7 6 4 3 4 4 4 4 5 7 8 7 6 6 8 10 10 8 7 8 9 8 8 7 7 8 9 8 7 7 9 9 10 12 12 10 9 10 11 11 12 12 13 14 14 13 16 18 18 18 17 18 19 20 21 20 21 21 21 21 22 22 21 21 21 19 17 16 15 16 16 16 15 14 15 15 15 14 14 13
14 12 10 9 8 7 6 4 4 4 4 4 5 6 8 8 6 5 5 7 9 10 9 8 7 8 9 9 7 7 9 9 9 8 9 10 10 11 13 13 12 11 12 12 12 12 12 13 14 14 13 14 15 16 17 17 19 19 20 21 21 21 22 22 21 22 21 20 20 21 20 19 18 17 17 17 16 15 14 14 14 14 13 12 12
15 12 11 10 8 8 6 5 4 4 5 4 5 7 7 7 6 5 6 6 7 9 11 10 11 11 11 10 9 8 8 8 8 9 9 10 10 10 10 12 13 13 14 14 13 12 12 12 13 13 12 12 12 13 13 15 18 19 21 23 23 22 22 22 22 21 21 21 21 21 20 20 20 19 19 18 17 16 15 15 14 13 12 12 11
16 13 12 11 9 8 7 6 5 4 5 5 4 6 7 7 7 6 6 6 6 7 9 10 11 11 11 10 9 8 7 7 7 8 9 10 10 9 8 9 11 13 14 14 12 11 11 11 12 12 12 11 11 11 10 11 14 14 15 19 23 24 22 22 22 21 20 20 20 21 20 20 20 20 19 19 19 18 17 16 15 14 13 12 12
18 15 14 12 10 9 8 7 5 5 5 5 4 5 5 6 7 7 7 6 6 5 6 8 9 9 8 8 7 7 6 7 8 8 8 10 10 10 10 10 11 12 14 14 12 10 10 10 11 12 12 11 9 8 7 7 9 8 8 10 14 19 22 23 23 21 19 18 18 19 20 20 20 19 19 19 19 18 18 17 16 15 14 13 13
19 17 15 13 12 10 9 7 6 5 5 6 5 5 5 5 6 8 7 6 6 5 4 5 6 6 6 6 6 6 6 8 9 9 9 10 11 12 12 12 12 12 13 14 13 12 11 10 11 12 12 11 8 6 5 6 6 6 5 4 3 7 13 17 20 20 18 17 17 17 18 19 19 19 18 19 19 18 18 17 17 17 16 15 14
18 18 16 15 14 12 10 8 7 6 6 7 6 6 6 5 7 9 8 6 6 5 5 4 4 5 6 6 6 6 7 8 10 11 11 11 11 12 12 12 12 12 13 15 15 14 13 12 12 12 12 12 9 6 5 4 2 3 3 3 1 1 4 7 12 18 19 17 16 16 16 17 18 19 19 19 19 19 18 17 17 17 17 16 16
19 19 18 17 15 12 11 8 7 7 7 8 8 7 7 7 8 10 9 7 6 6 5 4 4 5 6 6 6 7 8 9 10 11 11 11 10 11 11 11 12 12 12 14 15 15 14 13 13 13 13 15 13 11 10 6 5 5 4 3 2 2 1 1 5 13 19 20 17 15 15 16 16 17 18 18 17 17 17 17 17 17 17 17 16
21 20 19 17 15 12 11 9 7 7 7 8 8 8 8 10 10 11 10 9 7 6 6 5 4 5 5 6 7 7 7 8 9 9 9 9 9 9 10 10 11 11 11 12 13 14 14 14 13 14 15 16 17 17 16 14 13 12 9 6 5 5 4 2 2 5 13 20 19 16 14 14 15 16 16 16 15 15 15 15 15 15 16 16 16
22 21 19 18 15 13 13 11 9 8 8 8 9 9 11 11 11 11 11 10 8 7 7 6 4 4 5 6 7 7 6 6 6 7 7 8 8 8 8 9 9 10 10 11 11 12 12 13 13 13 14 14 16 17 16 15 15 15 14 13 11 10 9 6 3 2 4 11 17 19 16 13 13 15 15 15 14 13 13 12 12 13 14 15 15
22 21 20 19 16 14 14 13 10 10 9 9 11 11 12 11 10 10 10 10 9 8 8 7 5 5 6 7 7 7 6 6 6 6 6 7 7 6 6 7 7 8 9 9 10 10 10 11 11 11 12 12 12 13 13 13 14 14 15 16 15 14 13 10 9 7 4 2 7 14 18 18 17 17 15 14 14 12 11 11 10 10 11 12 13
22 21 21 20 17 15 15 13 12 11 10 11 12 11 10 10 10 9 8 8 8 9 10 8 6 6 7 7 6 6 6 6 6 5 5 4 4 4 4 5 5 6 7 7 8 8 8 8 8 9 10 10 10 11 12 12 13 13 14 15 17 17 16 15 13 11 7 3 2 4 10 18 20 21 21 18 16 14 11 9 9 9 9 10 11
22 22 21 20 19 17 15 14 13 12 12 12 12 12 11 10 9 9 8 8 8 10 11 10 8 7 7 6 6 6 6 5 4 3 3 2 2 2 2 2 3 4 4 5 5 6 6 6 7 7 8 9 9 10 11 12 11 12 11 12 14 13 12 11 11 12 10 8 6 2 7 13 13 19 25 24 21 19 16 13 10 10 10 9 8
22 22 21 21 20 19 17 15 15 13 12 12 13 12 11 11 9 8 9 10 10 11 11 11 9 8 7 6 6 6 6 5 3 1 1 1 1 1 1 2 3 3 3 4 4 5 6 6 6 6 7 8 9 9 10 11 11 12 12 13 13 12 10 8 7 10 9 7 7 4 8 14 13 15 22 26 25 23 21 19 17 14 12 9 7
Wind_Direction
119 117 105 99 92 90 86 80 74 68 64 52 52 44 45 38 34 34 26 29 30 36 42 53 42 36 48 84 99 48 354 358 354 26 26 6 12 13 358 353 3 9 359 344 328 317 314 310 297 274 274 272 256 246 239 230 224 221 214 218 222 218 207 205 212 214 223 228 229 232 232 231 229 227 225 225 228 231 230 229 222 219 217 215 219
119 116 105 99 90 87 82 75 74 69 61 49 48 41 44 39 36 40 31 29 14 14 23 66 62 38 42 56 66 70 55 7 348 15 12 352 7 13 359 349 2 359 343 333 317 315 316 318 312 300 290 288 280 263 254 235 225 223 217 217 215 215 206 201 209 208 217 227 230 234 236 236 234 231 229 228 230 231 229 229 225 221 218 215 217
122 116 103 97 90 85 81 79 80 74 65 55 54 48 47 37 40 47 48 27 298 33 16 40 62 58 49 51 47 48 66 31 10 21 3 356 4 357 353 340 351 346 336 332 324 319 318 321 316 314 304 283 274 264 262 248 235 229 224 220 212 213 210 204 207 207 213 221 228 233 235 237 238 237 234 232 232 231 228 227 225 222 223 220 218
126 114 108 103 95 90 87 83 75 70 73 67 60 47 38 31 36 39 47 30 11 44 36 32 46 66 55 50 46 48 60 48 33 25 2 5 4 357 3 357 354 343 336 332 328 324 320 318 313 312 303 288 279 266 262 259 246 240 233 228 217 211 211 209 209 209 215 219 225 231 236 240 242 244 240 237 235 234 230 227 226 223 229 228 221
124 118 120 117 107 97 84 76 71 73 73 60 45 30 25 22 27 28 33 31 31 35 40 45 56 73 66 53 47 56 58 46 36 19 6 12 13 9 8 7 0 341 335 327 322 321 317 315 313 313 306 301 294 279 264 260 249 247 246 241 233 220 213 209 208 210 217 220 225 233 240 245 246 248 245 241 235 233 230 226 226 222 228 231 223
128 130 128 123 112 96 84 79 76 76 62 42 26 16 16 13 21 25 29 32 34 44 47 50 60 67 66 61 56 61 53 40 33 22 22 21 21 20 14 7 1 347 336 324 322 321 318 318 316 314 314 310 301 292 276 268 256 254 261 258 254 244 227 214 210 213 220 223 231 242 247 251 250 250 249 244 237 230 225 221 221 219 223 226 223
134 133 127 121 106 92 86 81 77 69 48 31 16 10 11 8 18 31 44 44 44 54 56 55 57 62 66 67 66 60 46 41 37 29 29 25 23 22 17 7 359 345 334 326 324 328 323 322 321 318 317 312 304 300 297 290 278 264 256 248 249 250 240 227 222 222 225 228 240 253 255 257 252 250 249 242 239 232 223 217 215 216 219 221 219
133 130 123 114 97 90 86 82 76 59 41 26 17 16 17 22 43 61 60 55 60 62 62 62 58 62 67 69 65 53 42 39 31 28 26 21 20 18 16 6 359 349 340 337 333 334 328 326 323 322 321 316 310 306 303 295 279 266 251 232 240 251 246 238 237 237 236 237 247 257 257 255 245 244 240 230 234 231 220 211 207 212 216 217 215
133 128 118 106 92 93 90 86 74 52 37 27 31 37 44 56 65 68 65 62 70 70 67 64 62 63 65 66 60 48 38 30 24 26 25 19 17 16 16 8 3 356 347 346 347 341 334 333 327 325 324 321 320 312 303 288 275 268 255 231 238 251 252 248 245 247 247 246 253 254 251 252 245 240 230 216 219 220 210 205 205 210 215 214 213
132 121 110 98 96 99 96 89 74 56 38 42 58 62 66 71 70 66 66 67 68 69 67 64 60 57 57 56 50 44 36 28 27 28 25 19 17 12 8 6 4 357 353 355 356 350 346 345 337 331 325 327 327 313 300 289 289 279 259 242 248 252 250 247 247 256 260 259 260 243 236 255 255 236 220 211 216 215 203 207 212 214 215 209 206
122 114 105 100 104 106 102 92 83 73 54 62 73 74 71 64 62 63 65 67 68 70 69 64 59 52 49 47 46 46 42 38 36 30 25 23 19 13 9 9 4 1 5 360 352 353 353 353 346 337 327 326 321 301 298 300 298 283 257 250 256 254 250 240 253 273 280 269 259 236 226 240 247 222 210 211 219 213 206 212 216 213 207 198 194
121 117 109 112 117 114 108 95 92 92 85 82 78 80 74 57 51 49 56 62 63 64 65 64 60 56 50 49 51 51 48 42 37 32 27 25 23 20 15 9 5 10 15 4 353 356 357 355 350 344 333 324 321 311 319 328 294 278 259 253 251 245 251 252 256 269 274 277 278 260 238 234 239 216 202 208 213 204 208 214 211 207 199 190 187
127 122 117 123 126 124 113 100 98 96 94 91 86 86 82 73 65 58 59 62 61 58 56 58 58 57 55 56 58 55 50 44 40 39 35 31 28 25 15 8 14 17 15 12 9 8 3 360 359 353 343 334 339 333 326 340 307 293 278 251 244 201 194 262 227 133 97 18 346 304 260 239 233 212 200 205 205 201 206 207 202 199 189 183 184
127 126 127 131 135 134 119 107 102 95 92 86 84 81 75 67 62 61 58 57 56 53 51 51 50 48 49 57 62 58 54 49 47 44 41 36 29 25 13 10 18 16 12 15 15 15 11 11 12 359 359 4 355 346 325 334 348 306 289 242 193 164 140 9 84 74 63 57 49 55 102 219 204 197 197 197 194 197 198 196 194 188 179 177 177
127 129 135 140 143 142 135 119 106 97 89 82 81 74 67 55 44 42 43 47 46 46 47 46 44 40 40 51 59 58 55 52 49 42 38 34 28 22 13 12 15 13 14 13 11 15 16 23 24 7 15 22 5 5 336 334 12 309 297 214 113 107 66 55 76 68 67 69 71 84 103 153 174 183 187 187 185 188 188 186 182 178 175 171 172
134 137 143 145 145 146 145 134 115 98 85 82 78 72 64 46 33 30 33 39 44 45 42 41 41 38 38 46 55 56 53 49 45 39 34 31 30 23 13 14 17 17 16 14 13 16 20 26 27 16 24 29 20 22 344 352 35 331 337 76 79 67 51 61 78 70 66 74 103 100 78 71 111 179 181 181 179 178 178 178 174 174 170 164 168
144 148 153 147 144 144 144 134 115 89 75 73 67 70 62 43 32 26 34 36 40 43 36 31 30 34 40 48 57 58 53 48 44 39 37 34 31 23 15 16 21 21 16 18 18 18 22 23 27 28 37 37 31 34 17 59 53 9 31 59 64 56 45 57 77 74 74 112 116 93 71 67 90 137 162 167 165 167 168 167 165 164 162 161 163
153 152 153 150 146 141 138 122 94 69 54 45 39 46 48 44 30 16 27 34 31 32 26 16 12 22 35 54 66 62 55 50 49 44 40 36 30 22 16 19 24 21 16 25 26 22 22 23 34 44 48 46 44 67 66 58 47 36 49 58 62 55 48 60 70 72 81 90 87 87 80 82 109 129 146 152 147 152 154 153 153 149 152 156 154
163 158 151 149 145 140 132 102 57 43 20 11 13 18 42 55 31 16 22 24 17 18 12 1 353 7 33 64 75 68 62 55 52 47 44 38 34 31 23 26 29 20 18 32 37 28 24 29 46 52 52 55 62 69 64 54 48 54 62 61 61 58 57 65 70 76 73 68 80 94 91 93 118 131 138 138 135 139 143 143 142 140 143 146 144
180 176 162 145 131 128 115 68 34 22 355 346 349 351 47 108 52 33 27 12 359 5 4 357 352 11 43 73 79 75 70 60 54 49 48 44 42 42 37 36 35 26 23 31 40 34 30 40 52 55 57 68 73 68 63 56 57 66 64 58 59 63 64 66 71 77 70 71 89 99 98 106 119 126 129 130 130 131 133 134 132 134 138 140 144
195 193 175 142 108 110 94 44 24 8 352 345 340 336 189 155 98 43 20 356 350 6 15 17 16 33 58 79 80 81 77 66 56 49 46 47 48 44 41 39 35 36 32 32 42 42 41 49 59 60 61 67 68 65 63 61 63 67 65 60 62 67 69 71 69 65 69 79 95 103 107 111 115 119 121 124 125 123 124 128 126 130 134 134 137
203 204 188 137 96 88 47 25 15 360 355 358 4 45 145 157 119 26 358 345 360 24 34 42 44 48 75 88 82 81 80 68 53 47 46 48 49 44 41 36 33 37 37 38 47 51 52 61 70 67 64 62 61 63 65 68 65 64 66 68 69 69 69 70 66 64 70 78 96 111 119 113 109 114 115 116 116 115 118 121 121 124 126 124 124
207 203 184 134 101 65 27 14 3 357 13 36 60 92 104 110 78 38 16 5 22 42 47 56 60 63 84 95 84 77 74 61 50 51 51 48 46 44 43 38 37 38 39 44 50 54 57 64 68 67 67 69 71 74 68 66 65 63 64 66 66 64 63 61 55 59 64 69 86 104 119 117 109 110 111 111 112 113 113 114 114 116 119 119 120
204 198 182 142 115 61 23 1 360 17 53 64 76 90 88 83 72 59 48 37 38 49 60 68 74 76 89 101 88 76 67 57 58 58 53 49 47 47 48 45 42 43 49 53 54 55 59 65 68 70 73 74 74 72 64 61 61 62 63 61 59 61 66 68 61 57 63 69 85 102 116 115 109 108 108 107 110 112 113 114 114 114 118 121 124
195 190 184 154 138 63 10 357 15 50 63 70 82 92 89 79 73 66 56 47 44 58 71 75 82 86 96 110 96 77 62 56 62 61 56 55 53 52 55 53 49 54 60 61 61 63 65 69 72 73 72 70 70 70 69 67 67 67 67 64 60 59 65 71 68 62 65 73 83 103 108 103 101 101 102 102 105 111 113 113 113 116 121 124 125
183 176 170 155 159 70 14 14 56 64 63 76 90 95 83 74 74 67 58 52 54 71 75 77 87 94 105 112 92 69 58 60 64 63 64 61 58 58 61 60 58 63 68 68 70 72 72 75 76 75 73 73 74 75 76 76 77 74 71 68 64 61 62 63 64 62 69 78 81 98 103 96 94 95 98 101 104 112 113 112 114 116 122 126 124
176 165 152 144 145 90 37 48 90 70 68 85 97 92 75 68 66 61 60 60 63 75 75 75 85 96 102 95 72 62 61 66 67 69 71 64 61 65 65 67 68 68 71 74 77 78 77 79 79 78 76 74 75 75 75 74 72 70 67 64 59 60 62 60 60 61 66 78 82 95 104 95 93 97 101 107 110 113 112 112 116 117 123 126 122
180 167 145 133 125 81 65 99 101 71 76 97 99 86 74 62 50 48 63 67 66 74 75 73 80 88 84 68 58 61 68 70 74 77 72 65 67 70 70 74 74 72 75 78 80 81 81 82 81 78 74 71 71 71 71 69 66 63 62 61 59 58 59 59 62 60 61 76 85 93 102 94 91 99 106 113 114 113 113 115 117 118 123 123 119
186 174 161 146 116 84 91 103 92 77 85 101 97 85 75 55 40 44 58 67 65 68 75 72 75 81 71 57 56 65 72 74 82 81 69 66 71 74 74 77 78 77 80 82 82 83 83 81 80 76 72 68 67 67 67 65 62 59 59 60 61 60 59 61 64 61 59 74 90 93 97 96 95 100 105 108 109 111 115 118 119 118 121 120 119
187 181 176 170 113 101 107 93 85 92 95 97 93 86 70 47 47 59 58 62 66 71 78 73 73 78 71 64 65 71 73 79 88 80 68 68 72 77 78 78 80 81 83 85 84 83 82 80 78 76 72 68 66 65 64 63 61 59 60 61 62 62 61 59 60 59 59 74 90 94 92 93 97 100 102 107 110 112 115 118 116 116 120 118 117
192 186 182 189 139 121 110 91 96 100 95 90 86 79 61 44 56 68 66 69 73 80 80 74 75 75 74 73 73 76 80 88 89 76 69 72 76 80 81 80 81 83 86 87 87 84 81 79 78 76 73 70 67 66 63 62 61 59 62 63 64 67 64 59 58 55 63 81 88 92 94 90 92 97 103 110 110 110 114 117 113 113 117 114 113
196 189 188 195 165 137 112 97 102 99 90 83 78 76 62 48 61 72 74 76 74 79 78 76 79 77 79 78 75 79 86 92 86 74 73 75 78 82 81 80 81 86 89 89 87 83 81 80 79 78 75 73 71 68 66 65 64 61 63 65 67 71 67 62 60 56 69 87 89 91 95 91 89 93 100 107 108 109 114 119 119 117 114 112 111
193 189 192 194 175 150 122 103 105 95 83 81 78 78 67 55 65 70 71 74 68 67 76 81 84 84 84 80 76 80 86 90 83 74 75 75 77 81 80 79 82 89 91 90 90 86 85 83 82 82 81 79 74 71 70 67 65 63 63 65 67 71 69 64 63 62 70 84 88 89 91 90 88 91 97 106 110 112 113 117 121 120 115 112 111
186 187 192 195 182 157 126 108 106 89 78 82 79 82 80 66 65 64 52 58 64 64 79 90 94 92 86 83 79 80 84 86 82 72 72 75 74 78 80 80 82 90 94 94 94 93 90 86 85 86 84 82 78 75 72 69 67 64 63 64 65 67 66 62 63 66 70 77 84 87 87 88 88 89 94 103 109 112 113 114 116 116 115 113 111
189 191 193 192 176 151 124 113 105 90 88 89 83 86 88 73 66 65 45 46 67 75 86 94 102 98 89 84 78 78 81 80 78 70 69 74 73 75 80 81 81 87 94 96 98 98 94 89 86 86 87 85 82 79 74 71 69 67 65 63 62 62 61 58 59 65 68 72 79 84 87 89 89 89 91 95 99 102 104 106 108 110 111 111 111
196 196 193 187 171 150 128 119 113 110 104 98 87 85 97 88 78 72 51 47 68 81 88 93 104 103 93 86 77 73 73 70 68 63 68 79 75 75 80 82 82 86 92 97 102 105 100 94 90 87 86 85 83 81 78 75 71 69 67 66 62 61 62 61 63 66 69 71 73 77 83 86 88 91 94 95 94 93 95 97 100 104 106 108 112
197 196 192 186 173 151 133 127 126 133 121 109 97 89 101 101 93 81 60 54 67 80 90 94 100 101 94 87 77 70 68 66 64 62 81 91 81 79 81 82 85 92 98 100 105 109 107 101 95 87 83 82 82 82 82 80 76 72 70 68 65 63 64 66 68 68 69 71 72 75 79 82 86 91 96 98 98 97 95 93 95 98 102 106 110
190 193 192 186 174 151 140 144 140 140 136 123 110 103 106 106 101 87 68 61 68 75 86 97 97 93 91 86 79 76 75 74 72 76 93 98 90 87 85 81 86 97 102 104 108 113 113 107 100 93 83 80 81 82 84 83 79 76 73 69 66 64 63 65 69 70 69 70 74 77 77 80 83 85 87 90 93 97 97 95 94 93 97 102 106
183 188 189 182 170 155 151 158 150 144 144 135 118 116 116 113 110 93 77 72 72 73 79 94 102 98 95 91 89 89 86 82 79 82 92 96 94 96 93 84 87 99 101 103 109 115 115 110 105 101 91 83 81 82 83 82 80 77 74 70 68 67 64 64 67 69 69 70 73 75 75 76 78 77 80 83 86 90 93 94 92 91 92 95 98
182 185 184 179 171 162 162 161 156 153 155 152 131 126 126 123 122 106 86 80 78 78 81 92 102 102 99 94 92 88 83 82 83 84 89 93 93 99 101 87 84 91 93 96 104 113 117 113 109 107 102 94 87 84 82 83 82 80 77 73 71 68 65 65 67 68 68 67 68 70 72 73 73 73 74 78 81 84 87 89 89 88 88 88 89
182 186 185 182 178 172 171 169 166 164 163 166 151 140 136 133 132 115 93 86 89 88 87 93 98 97 93 89 86 83 78 82 89 89 88 90 92 96 100 89 81 81 84 88 95 111 121 122 118 114 112 108 98 90 87 85 80 76 77 75 71 69 68 68 68 67 67 67 67 68 69 72 72 72 73 76 79 80 83 85 86 86 85 85 85
184 188 189 187 183 181 180 180 180 176 174 179 178 166 153 146 144 127 103 92 96 99 94 95 96 93 88 83 80 81 83 84 86 90 91 91 92 92 92 89 82 79 84 88 93 107 124 134 134 126 121 116 106 96 91 85 74 67 73 75 67 66 68 69 71 71 69 70 72 71 70 73 74 74 76 78 79 80 81 83 85 86 85 85 84
188 190 192 191 190 187 185 188 193 190 188 191 196 193 172 157 155 141 119 99 98 109 110 100 95 88 80 78 80 86 92 86 80 87 98 99 95 93 92 90 87 85 87 90 92 99 113 129 139 136 128 119 110 103 96 87 77 72 73 66 51 60 60 58 62 68 74 76 77 77 74 74 76 78 80 80 80 81 81 82 83 84 84 83 83
190 191 192 194 195 192 189 191 198 201 205 205 207 208 184 157 154 147 132 115 108 117 126 114 95 84 76 79 90 97 95 89 83 87 97 103 99 93 90 89 90 90 89 89 89 92 102 115 127 135 133 119 105 98 107 108 81 81 87 73 58 71 58 50 52 60 72 80 79 80 79 77 78 79 80 80 79 78 78 80 80 80 81 80 79
191 193 194 195 195 194 190 190 201 206 211 208 206 211 189 157 151 148 138 130 122 124 133 127 106 92 80 83 104 109 99 94 91 90 95 99 96 88 84 85 87 88 85 84 84 86 93 103 112 120 122 116 105 93 92 97 93 99 127 135 95 78 101 136 65 58 65 72 76 85 87 83 81 78 78 77 76 76 75 76 77 77 78 78 77
195 196 195 195 195 194 189 187 196 196 196 197 196 196 179 158 153 153 148 142 137 134 133 130 119 103 88 94 116 121 109 103 100 95 95 93 90 84 79 79 80 79 77 78 80 81 85 92 101 109 110 111 108 97 87 85 86 84 90 99 97 121 154 155 94 66 63 64 67 80 90 91 88 82 79 76 73 73 72 72 74 75 76 76 74
197 198 197 197 196 195 189 187 189 185 184 186 182 175 168 161 158 159 158 155 154 149 139 132 120 112 113 115 122 126 118 112 107 99 92 87 84 80 75 73 74 74 74 75 77 76 78 84 92 101 108 111 109 102 95 91 88 79 80 85 88 109 132 133 123 125 78 59 59 67 80 95 96 85 77 73 69 68 67 69 71 73 75 75 72
197 198 198 199 199 196 189 189 189 186 186 184 178 172 168 169 168 166 168 168 168 162 152 145 133 127 134 132 131 130 121 110 103 94 88 83 79 75 69 67 68 73 76 76 76 74 75 79 83 90 100 104 103 105 106 104 99 90 86 88 87 94 105 115 122 119 113 80 54 61 74 88 90 81 76 71 68 68 67 69 73 76 79 80 75
197 199 200 200 200 196 191 192 192 188 188 187 183 180 179 181 182 180 179 178 177 172 166 163 156 148 147 144 141 138 128 113 102 91 84 80 72 64 60 62 67 73 78 78 76 75 75 76 77 80 87 92 95 101 105 106 106 104 98 94 92 92 90 94 104 101 91 96 89 46 70 82 78 69 71 74 72 74 78 79 82 85 88 88 82
197 200 201 200 199 197 195 195 192 188 191 193 190 190 193 194 196 197 191 183 180 176 175 175 174 170 166 159 151 147 144 131 114 97 84 69 48 33 36 74 84 78 81 85 82 83 85 80 77 80 86 90 92 95 97 99 101 102 103 101 98 96 92 88 91 91 81 76 88 73 66 78 73 61 63 68 72 75 78 85 90 92 97 102 94
197 200 201 201 199 198 198 195 192 190 195 199 197 198 201 203 209 212 202 189 183 182 181 182 185 187 183 174 161 154 154 148 133 107 65 27 3 11 52 93 95 87 87 88 90 95 95 85 82 90 96 96 96 97 97 97 95 94 93 93 92 91 94 96 101 106 106 99 99 90 74 82 83 70 62 63 70 74 74 76 80 83 89 96 91